Regional Weather Roundup
Issued by NWS Kansas City/Pleasant Hill, MO

Home | Current Version | Previous Version | Text Only | Print | Product List | Glossary On
Versions: 1 2 3 4 5 6 7 8 9 10 11 12 13 14 15 16 17 18 19 20 21 22 23 24 25 26 27 28 29 30 31 32 33 34 35 36 37 38 39 40 41 42 43 44 45 46 47 48 49 50
962
ASUS43 KEAX 292010
RWREAX

WEATHER ROUNDUP FOR EASTERN KANSAS AND NORTHWEST MISSOURI
NATIONAL WEATHER SERVICE KANSAS CITY/PLEASANT HILL MO
300 PM CDT THU SEP 29 2016

KSZ040-057-103>105-MOZ028-029-037-043-292100-
...KANSAS CITY METROPOLITAN AREA...

CITY           SKY/WX    TMP DP  RH WIND       PRES   REMARKS
K.C. INTL      MOSUNNY   71  48  43 N12       30.32F
K.C. DOWNTOWN  SUNNY     74  48  39 N9        30.30F
LEES SUMMIT    SUNNY     71  45  39 NE10      30.31F
OLATHE - IXD   SUNNY     71  49  45 N12       30.33F
OLATHE - OJC   SUNNY     69  45  41 N10       30.32F
LAWRENCE       SUNNY     71  49  45 NW10      30.33F

$$

MOZ001>008-011>017-020>025-030>033-038>040-044>046-053-054-292100-
...NORTHERN AND CENTRAL MISSOURI...

CITY           SKY/WX    TMP DP  RH WIND       PRES   REMARKS
ST. JOSEPH     SUNNY     73  48  41 NE13      30.33F
MOSBY          CLEAR     72  41  33 N9        30.30F
WHITEMAN AFB   MOSUNNY   73  47  39 NW14      30.26F
CLINTON        SUNNY     72  48  43 N13       30.28F
SEDALIA        SUNNY     76  46  34 NW15G22   30.27F
WARSAW         NOT AVBL
CHILLICOTHE      N/A     75  48  38 N8        30.30F
KIRKSVILLE     SUNNY     74  51  44 N17       30.26F

$$

MOZ041-047>049-056>058-063>065-088>090-097-292100-
...EASTERN AND SOUTHERN MISSOURI...

CITY           SKY/WX    TMP DP  RH WIND       PRES   REMARKS
ST. LOUIS INTL PTSUNNY   69  53  56 N14G23    30.17F
SPIRIT OF STL  CLOUDY    67  55  65 NW10      30.17F
COLUMBIA       SUNNY     76  50  40 N12G20    30.22F
JEFFERSON CITY SUNNY     75  50  41 NW10G18   30.21F
ROLLA          MOSUNNY   71  53  52 N14       30.20F
OSAGE BEACH    MOSUNNY   73  52  47 NW12G17   30.23F
SPRINGFIELD    SUNNY     72  45  37 N17       30.25F
BRANSON        SUNNY     73  45  35 NW14G20   30.25F
JOPLIN         SUNNY     71  48  43 N10       30.29F
WEST PLAINS    SUNNY     73  47  39 N16G25    30.21F

$$

IAZ060-094-KSZ022-034>040-054-083-096-NEZ052-066-093-292100-
...KANSAS...SOUTHEAST NEBRASKA AND IOWA...

CITY           SKY/WX    TMP DP  RH WIND       PRES   REMARKS
TOPEKA         MOSUNNY   70  51  51 N12G18    30.34F
MANHATTAN      MOSUNNY   69  49  48 N8        30.35F
EMPORIA        SUNNY     69  49  48 N10       30.34F
CHANUTE        SUNNY     72  49  44 N8        30.31F
WICHITA        MOSUNNY   71  49  45 NW8       30.35F
OMAHA          MOSUNNY   71  48  43 NE7       30.37F
LINCOLN        MOSUNNY   69  47  45 E3        30.39F
FALLS CITY     SUNNY     71  49  45 NE9       30.34F
LAMONI         SUNNY     71  49  45 N13       30.32F
DES MOINES     MOSUNNY   73  48  41 N12       30.33F

$$





USA.gov is the U.S. government's official web portal to all federal, state and local government web resources and services.